IW1CBG-3 Weather Reports


time (UTC)temp
C
wind
direction
speed
KPH
gust
KPH
rain 1hr
cm
rain 24hr
cm
rain mn
cm
humidity
%
barometer
mb
20260507122749 15 123 8.0 0.0 0.00 0.00 0.00 77 1023.4
20260507121749 15 113 19.3 0.0 0.00 0.00 0.00 77 1023.4
20260507120749 15 160 14.5 0.0 0.00 0.00 0.00 75 1023.1
20260507115749 15 150 11.3 0.0 0.00 0.00 0.00 78 1023.2
20260507114749 15 117 17.7 0.0 0.00 0.00 0.00 76 1023.1
20260507113749 16 105 9.7 0.0 0.00 0.00 0.00 73 1022.8
20260507112749 16 338 6.4 0.0 0.00 0.00 0.00 64 1022.8
20260507111749 17 119 8.0 0.0 0.00 0.00 0.00 63 1022.6
20260507110749 16 340 1.6 0.0 0.00 0.00 0.00 65 1023.0
20260507105749 16 237 1.6 0.0 0.00 0.00 0.00 65 1023.2
20260507104749 15 155 4.8 0.0 0.00 0.00 0.00 65 1023.6
20260507103749 16 354 11.3 0.0 0.00 0.00 0.00 67 1023.1
20260507102749 16 29 8.0 0.0 0.00 0.00 0.00 69 1023.7
20260507101749 15 312 4.8 0.0 0.00 0.00 0.00 69 1023.9
20260507100749 15 299 11.3 0.0 0.00 0.00 0.00 69 1023.8
20260507095749 16 307 9.7 0.0 0.00 0.00 0.00 68 1023.6
20260507094749 15 20 9.7 0.0 0.00 0.00 0.00 69 1023.8
20260507093748 15 28 12.9 0.0 0.00 0.00 0.00 70 1024.0
20260507092749 15 313 6.4 0.0 0.00 0.00 0.00 72 1023.8
20260507091749 14 0 9.7 0.0 0.00 0.00 0.00 73 1024.2
20260507090748 13 3 8.0 0.0 0.00 0.00 0.00 74 1024.2
20260507085749 13 310 8.0 0.0 0.00 0.00 0.00 76 1024.4
20260507084749 13 24 8.0 0.0 0.00 0.00 0.00 76 1024.3
20260507083748 13 13 14.5 0.0 0.00 0.00 0.00 77 1024.4
20260507082748 13 282 3.2 0.0 0.00 0.00 0.00 78 1024.3
20260507081749 13 310 6.4 0.0 0.00 0.00 0.00 78 1024.1
20260507080748 13 341 9.7 0.0 0.00 0.00 0.00 78 1024.1
20260507075748 13 333 11.3 0.0 0.00 0.00 0.00 80 1024.2
20260507074749 12 317 6.4 0.0 0.00 0.00 0.00 79 1024.5
20260507073748 12 32 9.7 0.0 0.00 0.00 0.00 78 1024.7
20260507072748 11 175 0.0 0.0 0.00 0.00 0.00 78 1024.6
20260507071748 10 7 1.6 0.0 0.00 0.00 0.00 78 1025.0
20260507070748 10 304 0.0 0.0 0.00 0.00 0.00 79 1025.0
20260507065748 10 150 8.0 0.0 0.00 0.00 0.00 81 1024.9
20260507064750 8 158 11.3 0.0 0.00 0.00 0.00 84 1025.3
20260507063750 8 152 9.7 0.0 0.00 0.00 0.00 86 1025.4
20260507062749 7 126 4.8 0.0 0.00 0.00 0.00 87 1025.9
20260507061749 7 147 4.8 0.0 0.00 0.00 0.00 88 1025.6
20260507060750 7 177 8.0 0.0 0.00 0.00 0.00 89 1026.2
20260507055748 7 92 3.2 0.0 0.00 0.00 0.00 93 1026.1
20260507054749 6 259 0.0 0.0 0.00 0.00 0.00 93 1026.2
20260507053749 6 168 9.7 0.0 0.00 0.00 0.00 94 1026.2
20260507052748 6 157 1.6 0.0 0.00 0.00 0.00 95 1026.1
20260507051748 6 154 12.9 0.0 0.00 0.00 0.00 97 1025.9
20260507050749 5 140 3.2 0.0 0.00 0.00 0.00 97 1026.3
20260507045749 5 140 4.8 0.0 0.00 0.00 0.00 98 1026.1
20260507043749 5 127 6.4 0.0 0.00 0.00 0.00 98 1025.8
20260507042748 5 224 0.0 0.0 0.00 0.00 0.00 97 1026.0
20260507041748 5 102 3.2 0.0 0.00 0.00 0.00 98 1026.1
20260507040748 5 101 3.2 0.0 0.00 0.00 0.00 97 1026.0
20260507035748 5 209 0.0 0.0 0.00 0.00 0.00 97 1025.9
20260507034749 5 158 0.0 0.0 0.00 0.00 0.00 97 1025.7
20260507033749 5 269 0.0 0.0 0.00 0.00 0.00 97 1025.4
20260507032749 5 153 3.2 0.0 0.00 0.00 0.00 97 1025.4
20260507031748 5 168 0.0 0.0 0.00 0.00 0.00 97 1025.3
20260507030748 5 117 3.2 0.0 0.00 0.00 0.00 97 1025.1
20260507025749 5 245 1.6 0.0 0.00 0.00 0.00 97 1025.1
20260507024749 5 298 1.6 0.0 0.00 0.00 0.00 97 1025.4
20260507023750 5 315 0.0 0.0 0.00 0.00 0.00 97 1025.2
20260507022749 5 104 6.4 0.0 0.00 0.00 0.00 97 1025.3
20260507021749 5 265 3.2 0.0 0.00 0.00 0.00 97 1025.1
20260507020749 5 160 0.0 0.0 0.00 0.00 0.00 97 1025.0
20260507015748 6 122 1.6 0.0 0.00 0.00 0.00 97 1025.0
20260507014749 6 123 1.6 0.0 0.00 0.00 0.00 97 1024.7
20260507013749 6 77 3.2 0.0 0.00 0.00 0.00 97 1024.7
20260507012749 6 262 1.6 0.0 0.00 0.00 0.00 97 1024.8
20260507011749 6 120 4.8 0.0 0.00 0.00 0.00 97 1024.6
20260507010748 6 134 6.4 0.0 0.00 0.00 0.00 97 1024.7
20260507005749 6 133 8.0 0.0 0.00 0.00 0.00 97 1024.9
20260507003748 6 52 0.0 0.0 0.00 0.00 0.00 96 1024.5
20260507002748 6 52 0.0 0.0 0.00 0.00 0.00 96 1024.7
20260507001748 6 169 3.2 0.0 0.00 0.00 0.00 96 1024.5
20260507000748 6 257 1.6 0.0 0.00 0.00 0.00 96 1024.5
20260506235749 6 286 0.0 0.0 0.00 0.00 0.00 95 1024.5
20260506234749 7 48 0.0 0.0 0.00 0.00 0.00 95 1024.3
20260506233748 7 304 3.2 0.0 0.00 0.00 0.00 94 1024.2
20260506232748 7 176 3.2 0.0 0.00 0.00 0.00 93 1023.7
20260506231749 7 82 6.4 0.0 0.00 0.00 0.00 93 1023.8
20260506225749 8 130 0.0 0.0 0.00 0.00 0.00 92 1023.5
20260506224748 8 174 4.8 0.0 0.00 0.00 0.00 92 1023.1
20260506223749 8 157 0.0 0.0 0.00 0.00 0.00 91 1023.5
20260506222748 8 106 6.4 0.0 0.00 0.00 0.00 90 1023.1
20260506221748 8 278 3.2 0.0 0.00 0.00 0.00 90 1023.0
20260506220749 8 198 0.0 0.0 0.00 0.00 0.00 89 1023.1
20260506215749 9 354 3.2 0.0 0.00 0.00 0.00 88 1022.8
20260506214749 8 102 0.0 0.0 0.00 0.00 0.00 87 1023.0
20260506212749 9 102 1.6 0.0 0.00 0.00 0.00 85 1022.4
20260506211748 10 286 9.7 0.0 0.00 0.00 0.00 83 1022.4
20260506210749 10 17 4.8 0.0 0.00 0.00 0.00 82 1022.0
20260506205748 11 117 6.4 0.0 0.00 0.00 0.00 82 1021.8
20260506203748 11 148 8.0 0.0 0.00 0.00 0.00 84 1021.6
20260506202749 11 158 11.3 0.0 0.00 0.00 0.00 82 1021.3
20260506201748 13 179 9.7 0.0 0.00 0.00 0.00 77 1020.4
20260506200749 13 178 4.8 0.0 0.00 0.00 0.00 76 1020.4
20260506195748 13 117 33.8 0.0 0.00 0.00 0.00 76 1020.3
20260506194748 13 126 20.9 0.0 0.00 0.00 0.00 74 1020.2
20260506193749 13 121 11.3 0.0 0.00 0.00 0.00 76 1020.1
20260506192749 13 125 19.3 0.0 0.00 0.00 0.00 76 1019.7
20260506191749 13 100 6.4 0.0 0.00 0.00 0.00 73 1019.8
20260506190749 13 136 11.3 0.0 0.00 0.00 0.00 72 1018.8
20260506185749 13 102 11.3 0.0 0.00 0.00 0.00 72 1018.9
20260506184748 13 153 11.3 0.0 0.00 0.00 0.00 74 1019.0
20260506183748 14 107 11.3 0.0 0.00 0.00 0.00 69 1018.6
20260506182749 14 139 12.9 0.0 0.00 0.00 0.00 69 1018.4
20260506181749 14 152 12.9 0.0 0.00 0.00 0.00 71 1018.1
20260506180749 15 134 25.7 0.0 0.00 0.00 0.00 69 1017.8
20260506175749 15 161 9.7 0.0 0.00 0.00 0.00 71 1017.6
20260506174748 15 118 33.8 0.0 0.00 0.00 0.00 69 1017.3
20260506173748 15 139 6.4 0.0 0.00 0.00 0.00 68 1017.3
20260506172748 15 154 9.7 0.0 0.00 0.00 0.00 68 1016.7
20260506171749 15 147 14.5 0.0 0.00 0.00 0.00 70 1017.3
20260506170748 16 97 16.1 0.0 0.00 0.00 0.00 69 1016.7
20260506165749 16 126 17.7 0.0 0.00 0.00 0.00 69 1016.9
20260506163749 16 126 17.7 0.0 0.00 0.00 0.00 67 1016.7
20260506162750 16 105 12.9 0.0 0.00 0.00 0.00 68 1016.8
20260506161749 16 121 29.0 0.0 0.00 0.00 0.00 68 1016.7
20260506160748 16 126 22.5 0.0 0.00 0.00 0.00 66 1016.5
20260506155748 16 171 20.9 0.0 0.00 0.00 0.00 66 1016.4
20260506154749 16 120 24.1 0.0 0.00 0.00 0.00 67 1016.6
20260506153749 16 169 20.9 0.0 0.00 0.00 0.00 69 1016.7
20260506152749 16 158 24.1 0.0 0.00 0.00 0.00 68 1016.5
20260506151749 16 165 11.3 0.0 0.00 0.00 0.00 68 1016.9
20260506150748 16 138 22.5 0.0 0.00 0.00 0.00 69 1016.8
20260506145748 16 180 16.1 0.0 0.00 0.00 0.00 69 1016.8
20260506144748 16 168 11.3 0.0 0.00 0.00 0.00 68 1016.7
20260506143749 16 176 9.7 0.0 0.00 0.00 0.00 69 1016.9
20260506142749 16 146 14.5 0.0 0.00 0.00 0.00 68 1016.8
20260506141748 16 185 8.0 0.0 0.00 0.00 0.00 66 1016.6
20260506140749 17 110 12.9 0.0 0.00 0.00 0.00 66 1016.5
20260506135749 17 126 12.9 0.0 0.00 0.00 0.00 66 1016.3
20260506134749 16 124 33.8 0.0 0.00 0.00 0.00 67 1016.4
20260506133748 16 174 19.3 0.0 0.00 0.00 0.00 67 1017.2
20260506132748 16 188 14.5 0.0 0.00 0.00 0.00 68 1016.8
20260506131749 17 170 20.9 0.0 0.00 0.00 0.00 66 1016.4
20260506130748 17 169 20.9 0.0 0.00 0.00 0.00 64 1016.9
20260506125749 16 121 35.4 0.0 0.00 0.00 0.00 65 1016.9
20260506123749 17 176 16.1 0.0 0.00 0.00 0.00 63 1016.6